Regional Weather Roundup
Issued by NWS

Home | Current Version | Previous Version | Graphics & Text | Print | Product List | Glossary On
Versions: 1 2 3 4 5 6 7 8 9 10 11 12 13 14 15 16 17 18 19 20 21 22 23 24 25 26 27
000
ASUS45 KBOU 211307
RWRCO

WEATHER ROUNDUP FOR COLORADO
NATIONAL WEATHER SERVICE DENVER/BOULDER CO
700 AM MDT SUN MAY 21 2017

NOTE: "FAIR" INDICATES FEW OR NO CLOUDS BELOW 12000 FEET WITH NO
SIGNIFICANT WEATHER AND/OR OBSTRUCTIONS TO VISIBILITY.

COZ001>005-013-030-031-211400-
...NORTHWEST COLORADO...

CITY           SKY/WX    TMP DP  RH WIND       PRES   REMARKS
CRAIG          CLOUDY    35  30  82 CALM      30.22R
HAYDEN         FAIR      37  28  70 E12       30.23R
MEEKER         FAIR      40  32  73 NE5       30.23R
RABBIT EARS PA FAIR      30  23  74 W3        30.31S
STEAMBOAT SPGS CLOUDY    32  31  96 CALM      30.24S
WALDEN           N/A     34  28  80 S3        30.27S
$$

COZ006>008-011-211400-
...WEST CENTRAL VALLEYS...

CITY           SKY/WX    TMP DP  RH WIND       PRES   REMARKS
GRAND JUNCTION FAIR      45  35  68 SE10      30.17R
MONTROSE       FAIR      38  30  73 S3        30.23R
EAGLE          SUNNY     34  28  80 CALM      30.30R
RIFLE          FAIR      37  32  82 CALM      30.24R
DELTA          FAIR      44  32  62 E6        30.22R
NUCLA          FAIR      41  30  65 E6        30.25R
$$

COZ017>023-064>068-211400-
...SOUTHWEST COLORADO...

CITY           SKY/WX    TMP DP  RH WIND       PRES   REMARKS
DURANGO        FAIR      34  26  72 N5        30.21R WCI  30
CORTEZ         FAIR      34  31  88 E5        30.20R WCI  30
PAGOSA SPRINGS FAIR      34  27  75 CALM      30.26R
TELLURIDE      FAIR      32  24  72 SE6       30.31R WCI  27
WOLF CREEK PAS FAIR      27  18  69 S10       30.40R WCI  17
$$

COZ009-010-012-014-032>034-037-058>063-211400-
...CENTRAL COLORADO...

CITY           SKY/WX    TMP DP  RH WIND       PRES   REMARKS
ASPEN          FAIR      34  24  67 S3        30.26R
BUENA VISTA    FAIR      35  24  63 CALM      30.28R
COPPER MTN     FAIR      27  16  63 MISG      30.36R
BERTHOUD PASS  FAIR      19   9  63 NW15      30.34R WCI   5
COTTONWOOD PAS FAIR      36  16  44 CALM      30.31R
GUNNISON       FAIR      30  24  78 CALM      30.31R
KREMMLING      FAIR      34  32  93 CALM      30.30R
LEADVILLE      FAIR      24  18  77 CALM      30.30R
MONARCH PASS   FAIR      27  12  54 W7        30.46R WCI  19
SALIDA         FAIR      38  26  61 CALM      30.35R
SUNLIGHT       FAIR      30  18  59 CALM      30.37R
WILKERSON PASS FAIR      28  18  64 W5        30.37R WCI  23
$$

COZ069>075-211400-
...SAN LUIS VALLEY/SANGRE DE CRISTO MOUNTAINS...

CITY           SKY/WX    TMP DP  RH WIND       PRES   REMARKS
ALAMOSA        FAIR      38  30  73 SE3       30.25R
DEL NORTE      FAIR      37  23  56 W12       30.26R
LA VETA PASS   FAIR      32  25  74 SW7       30.42R WCI  26
SAGUACHE       NOT AVBL
$$

COZ035-036-038>040-211400-
...NORTHERN COLORADO FRONT RANGE...

CITY           SKY/WX    TMP DP  RH WIND       PRES   REMARKS
DENVER INTL AP FAIR      47  34  60 SW6       30.18R
DMNS CITY PARK   N/A     45  30  55 W5        30.20R
AURORA         MOSUNNY   44  36  71 S10       30.19R
FRONT RANGE AP MOSUNNY   48  37  66 S13G20    30.20R
ERIE MUNI ARPT FAIR      41  38  86 CALM      30.19R
BOULDER MUN AP FAIR      45  32  61 CALM      30.18R
CENTENNIAL     FAIR      44  33  65 S6        30.20R
BROOMFIELD     MOSUNNY   43  30  61 CALM      30.19R
FORT COLLINS   FAIR      45  39  79 CALM      30.19R
LONGMONT       FAIR      46  37  72 CALM      30.21R HAZE
$$

COZ041-046-047-076>085-087-088-211400-
...PIKES PEAK/PALMER DIVIDE AND SOUTHERN FOOTHILLS...

CITY           SKY/WX    TMP DP  RH WIND       PRES   REMARKS
COLO. SPRINGS  FAIR      47  34  60 SE6       30.23R
A. F. ACADEMY  FAIR      39  32  77 N8        30.22R
SCHRIEVER AFB  PTSUNNY   47  34  62 SW8       30.22S
CHEYENNE MTN   FAIR      45  32  62 CALM      30.17S
ELLICOTT       PTSUNNY  N/A N/A N/A CALM      30.21R
FALCON         FAIR      45  32  60 S7        30.24S
FORT CARSON    PTSUNNY   47  35  63 N7        30.21R
LIMON          PTSUNNY   41  39  93 N3        30.20R
MONUMENT HILL  FAIR      37  32  81 S6        30.25R
CANON CITY     NOT AVBL
WALSENBURG     FAIR      46  39  76 W3        30.21R
TRINIDAD       FAIR      43  34  70 W6        30.21R
$$

COZ042>045-048>051-090-091-211400-
...NORTHEAST COLORADO...

CITY           SKY/WX    TMP DP  RH WIND       PRES   REMARKS
GREELEY ARPT   FAIR      42  37  82 CALM      30.19R
AKRON          FAIR      44  35  70 W10       30.18R
BURLINGTON     FAIR      46  42  86 W5        30.18R
WRAY           FAIR      43  41  93 W3        30.17R
YUMA           FAIR      41  36  81 W7        30.17R
STERLING       FAIR      41  39  93 S5        30.16R
HOLYOKE        NOT AVBL
FORT MORGAN    FAIR      41  38  89 SW5       30.19R
$$

COZ086-089-092>099-211400-
...SOUTHEAST COLORADO...

CITY           SKY/WX    TMP DP  RH WIND       PRES   REMARKS
PUEBLO         FAIR      48  40  73 CALM      30.18R
LA JUNTA       FAIR      54  39  57 SE8       30.17R
LAMAR          PTSUNNY   53  40  61 S5        30.16S
SPRINGFIELD      N/A     47  41  80 S7        30.19R
$$




USA.gov is the U.S. government's official web portal to all federal, state and local government web resources and services.